sat.trackr.live / text

‹ back to catalog

STARLINK-4757

NORAD 53824 · 2022-114G

PAYLOAD ACTIVE UNKNOWN

§ Identity

Operator
Country
US
Launch date
2022-09-19
Launch site
AFETR
Launch vehicle
Mass (kg)
RCS (m²)

Purposes: comms

External: N2YO · Heavens-Above · Gunter

§ Orbital elements

Epoch: 2026-09-20T09:20:44.808000Z

Period
93.79 min
Inclination
53.1614°
Eccentricity
0.0001148
Mean motion
15.35396932 rev/d
Perigee alt
459.0 km
Apogee alt
460.5 km
Semi-major
6,837.9 km
B*
2.8736e-5
RAAN
140.3659°
Arg perigee
95.8645°
Mean anomaly
264.2489°
Rev number
22,226

§ Raw data

STARLINK-47571 53824U 22114G   26263.38940750  .00000622  00000+0  28736-4 0  99962 53824  53.1614 140.3659 0001148  95.8645 264.2489 15.35396932222268

JSON: /api/v1/satellites/53824 · /tle

For live sub-satellite position, see the globe view (requires WebGL).

§ Visibility from observer

Set your observer location to see the next 7 days of passes ≥ 10°. The values pass through the URL so the page stays shareable.

No JS? Fill the form by hand. The geolocation button needs JavaScript.